Temperature
23 23 23 23 22 22 21 21 21 20 20 20 20 19 19 19 19 19 18 18 18 18 18 18 18 18 18 18 18 18 18 18 18 18 18 18 18 18 18 18 18 18 17
23 23 23 23 22 22 21 21 21 20 20 20 20 19 19 19 19 18 18 18 18 18 18 18 18 18 18 18 18 18 18 18 18 18 18 17 18 18 18 18 18 18 18
23 23 23 22 22 22 21 21 21 20 20 20 19 19 19 19 18 18 18 18 18 18 18 18 18 18 18 18 18 18 18 18 18 18 17 17 17 18 18 18 18 18 18
23 23 23 22 22 22 21 21 21 20 20 20 19 19 19 19 19 18 18 18 18 18 18 18 18 18 18 18 18 18 18 18 18 18 17 17 17 17 18 18 18 18 18
24 23 23 23 22 22 21 21 21 20 20 20 19 19 19 19 18 18 18 18 18 18 18 18 18 18 18 18 18 18 18 18 17 17 17 17 17 17 17 17 18 18 18
23 23 23 22 22 22 21 21 21 20 20 20 19 19 19 19 18 18 18 18 18 18 18 18 18 18 18 18 18 18 18 17 17 17 17 17 17 17 17 17 17 17 17
23 23 22 22 22 22 21 21 20 20 20 20 19 19 19 19 18 18 18 18 18 18 18 18 18 18 18 18 18 18 18 17 17 17 17 17 17 17 17 17 17 17 17
23 23 23 22 22 22 21 21 20 20 20 19 19 19 19 18 18 18 18 18 18 18 18 18 18 18 18 18 18 18 18 17 17 17 17 17 17 17 17 17 16 16 16
23 23 22 22 22 21 21 21 20 20 19 19 19 19 18 18 18 18 18 18 18 17 17 17 17 17 17 17 17 17 17 17 17 17 17 17 17 17 16 16 16 16 16
23 23 22 22 22 21 21 21 20 20 19 19 19 18 18 18 18 18 18 18 17 17 17 17 17 17 17 17 17 17 17 17 16 16 16 16 16 16 16 16 16 16 16
23 23 22 22 22 21 21 20 20 20 19 19 18 18 18 18 18 18 17 17 17 17 17 17 17 17 17 16 16 16 16 16 16 16 16 16 16 16 16 16 16 16 16
23 23 22 22 21 21 21 20 20 20 19 19 18 18 18 18 18 17 17 17 17 17 17 17 17 16 16 16 16 16 16 16 16 16 15 15 15 15 15 15 15 15 15
22 22 22 21 21 21 20 20 19 19 19 19 18 18 18 18 17 17 17 17 17 17 17 16 16 16 16 16 16 15 15 15 15 15 15 15 15 15 15 15 15 15 15
22 21 21 21 21 20 20 20 19 19 18 18 18 18 17 17 17 17 17 17 16 16 16 16 16 16 15 15 15 15 15 15 14 14 14 14 15 14 14 14 14 14 14
21 21 21 21 21 20 20 19 19 18 18 18 18 17 17 17 17 17 16 16 16 16 16 15 15 15 15 15 15 14 14 14 14 14 14 14 14 14 14 14 14 14 14
21 21 21 20 20 20 20 19 19 18 18 17 17 17 17 17 16 16 16 16 15 15 15 15 15 15 15 14 14 14 14 14 14 14 14 13 13 13 13 13 13 13 13
21 21 21 20 20 20 19 19 18 18 17 17 17 17 16 16 16 16 15 15 15 15 15 14 14 14 14 14 14 13 14 13 13 13 13 13 13 13 13 13 13 13 12
21 21 20 20 20 20 19 19 18 18 17 17 17 16 16 16 16 15 15 15 15 14 14 14 14 14 13 13 13 13 13 13 12 12 12 12 12 12 12 12 12 12 12
21 21 21 20 20 19 19 18 18 17 17 17 16 16 16 16 15 15 15 14 14 14 14 13 13 13 13 13 13 12 12 12 12 12 11 11 11 11 11 12 12 11 11
21 21 20 20 19 19 19 18 18 17 17 16 16 16 15 15 15 15 14 14 13 13 13 13 13 12 12 12 12 12 12 12 11 11 11 11 11 11 11 11 11 11 10
21 20 20 19 19 19 18 18 17 17 17 16 16 15 15 15 15 14 14 13 13 13 13 12 12 12 12 12 11 11 11 11 11 11 10 10 10 10 10 10 10 10 10
20 20 19 19 19 18 18 18 17 17 16 16 16 15 15 14 14 14 13 13 13 12 12 12 12 11 11 11 11 11 11 11 11 10 10 10 10 10 10 10 10 10 10
19 19 19 18 18 18 17 17 17 16 16 15 15 15 14 14 14 13 13 13 12 12 12 11 11 11 11 11 10 10 10 10 10 10 10 9 9 9 9 9 9 9 9
19 18 18 18 17 17 17 17 16 16 15 15 15 14 14 13 13 13 13 12 12 12 11 11 11 11 10 10 10 10 10 10 10 9 9 9 9 9 9 9 9 8 8
18 18 18 18 17 16 16 16 16 15 15 15 14 14 13 13 13 12 12 12 12 11 11 11 11 10 10 10 10 10 10 10 9 9 9 9 9 9 9 8 8 8 8
18 17 17 17 16 16 16 15 15 15 15 14 14 13 13 13 12 12 12 11 11 11 10 10 10 10 10 10 9 9 9 9 9 9 9 9 8 8 8 8 8 8 8
Wind_Speed
9 9 11 11 10 9 9 9 8 7 5 3 3 2 2 2 2 4 7 8 8 7 6 4 3 4 4 4 4 3 2 2 1 1 2 3 2 3 4 4 6 8 12
8 10 9 10 10 10 9 8 8 7 6 4 4 3 3 2 2 2 4 7 7 7 7 5 4 4 3 3 3 3 2 2 2 3 1 2 4 3 4 3 5 5 7
12 11 10 9 10 9 9 8 7 6 5 4 2 2 1 1 1 1 2 4 7 7 7 7 5 4 4 4 5 4 4 3 2 3 4 3 4 3 3 3 4 4 4
10 11 10 10 10 9 8 7 6 6 5 5 4 4 3 3 3 2 3 3 5 6 7 6 6 5 4 5 5 5 4 4 3 2 3 3 4 3 2 3 3 4 5
12 12 11 11 9 9 9 7 7 6 5 5 6 5 3 3 2 1 2 2 2 4 5 6 5 5 4 5 5 4 4 4 4 4 3 2 2 2 3 3 3 3 3
11 10 8 8 7 7 7 7 7 6 6 5 5 5 5 3 2 2 2 2 1 2 3 4 3 4 4 4 4 4 5 5 5 4 4 3 3 3 3 4 3 3 3
10 10 9 8 8 8 8 7 7 6 6 6 5 5 5 4 4 3 3 2 1 2 2 2 1 1 2 3 3 4 4 4 4 4 4 3 4 3 3 3 3 3 2
9 10 10 10 10 9 8 7 7 6 5 5 4 4 4 3 3 3 2 2 2 2 1 1 1 1 2 2 2 2 3 3 3 4 3 3 3 3 4 4 3 3 2
11 11 10 9 9 9 8 8 7 6 5 5 4 3 3 3 2 2 2 1 1 1 1 1 1 1 0 0 1 1 1 1 2 2 2 2 2 3 3 3 4 4 4
10 10 9 9 8 8 7 7 7 6 5 5 3 3 3 2 2 2 2 2 2 2 2 2 2 2 1 1 0 0 0 0 1 1 1 1 2 2 1 2 2 3 4
11 9 8 8 8 7 7 7 6 5 5 4 4 4 3 3 3 3 2 2 3 3 4 3 3 3 3 2 2 2 2 2 1 1 1 1 1 1 1 1 1 1 2
9 9 9 8 7 7 7 6 6 5 5 5 5 4 4 4 4 4 3 3 4 4 4 4 4 4 4 3 3 3 3 3 2 2 1 2 1 1 1 1 1 1 1
10 9 9 8 8 7 6 7 6 5 5 6 6 5 5 5 5 4 4 5 5 6 5 6 6 5 5 4 4 3 4 3 3 3 3 3 2 2 2 1 1 0 0
11 10 9 8 8 8 7 7 6 6 6 7 7 6 5 5 5 5 5 6 6 6 6 6 6 5 5 5 5 5 5 5 6 5 4 4 4 3 2 2 2 1 2
11 11 10 8 8 8 7 6 6 6 7 8 7 6 6 6 6 7 6 6 6 7 6 6 7 6 5 5 5 5 6 6 6 6 5 6 8 8 5 4 3 2 2
13 12 11 10 9 9 8 6 6 6 8 8 7 7 7 7 7 7 7 7 7 7 7 7 7 7 6 8 9 7 5 5 6 6 5 6 7 9 11 11 10 7 5
13 13 12 11 10 9 8 8 7 8 8 8 7 7 7 7 7 7 7 7 7 7 8 7 7 7 7 9 9 9 6 6 6 5 5 6 7 8 6 9 12 12 11
13 12 12 11 9 9 9 9 9 8 8 8 7 7 7 8 7 7 7 7 6 7 7 7 7 7 8 10 10 10 8 8 7 7 6 6 6 6 6 7 8 9 9
11 11 11 11 10 10 10 10 9 8 8 8 8 7 8 8 7 7 6 6 7 7 6 6 7 7 7 9 10 9 7 7 8 7 7 7 6 9 9 8 8 8 8
9 10 10 10 10 9 10 11 9 9 8 8 8 7 7 8 8 7 6 6 7 7 7 7 7 7 6 8 9 8 6 6 6 6 7 10 9 9 9 7 7 8 5
10 11 11 10 10 10 11 11 9 8 7 8 8 8 7 8 7 7 6 7 7 7 7 7 6 7 7 7 9 9 5 5 5 5 5 6 10 11 11 9 6 6 5
10 11 11 9 8 10 11 11 9 8 8 9 9 8 7 7 7 7 7 6 7 8 6 6 6 6 6 7 8 9 9 7 6 4 3 5 11 12 12 9 9 11 8
10 9 11 10 8 8 10 11 9 9 10 10 9 8 8 6 6 7 7 6 6 6 5 5 4 4 4 5 8 9 9 9 5 4 6 8 11 10 9 11 11 9 6
10 9 11 11 9 8 9 9 10 10 11 10 9 8 8 7 6 5 5 5 5 5 5 4 4 3 3 3 4 4 5 6 6 5 6 9 10 9 8 7 7 6 5
7 9 10 10 10 9 9 9 10 11 11 10 9 8 8 8 7 6 4 4 2 3 5 4 4 4 3 1 2 2 2 2 3 4 5 5 5 6 6 6 6 5 6
9 9 9 10 9 9 9 9 9 11 12 10 9 7 7 7 6 7 6 8 6 6 7 7 6 3 4 4 6 6 6 6 7 7 5 4 4 4 4 4 4 4 4
Wind_Direction
177 169 167 164 160 158 157 161 162 172 165 165 170 173 190 199 198 199 196 192 190 187 185 193 189 182 181 188 184 172 178 205 170 93 337 320 281 233 217 208 201 209 214
163 167 167 165 165 165 165 165 167 173 177 179 181 181 176 191 200 210 200 202 201 199 199 195 193 190 183 188 192 177 176 215 166 147 129 321 322 295 243 220 211 212 208
173 172 171 172 164 164 166 170 168 169 174 173 154 131 97 63 122 190 220 222 213 207 203 198 195 197 190 197 204 193 184 206 219 172 159 174 230 277 293 241 220 213 208
174 173 173 176 173 170 164 162 163 167 171 161 160 166 179 195 210 204 214 233 223 213 211 205 198 201 199 202 212 198 191 184 209 222 209 197 180 191 275 293 251 225 216
174 176 178 177 170 163 163 164 162 170 172 172 176 174 187 201 193 190 201 222 242 231 222 216 204 206 206 209 214 205 198 193 200 207 208 218 219 197 199 260 280 275 238
172 168 165 156 158 161 162 165 163 172 174 177 180 183 190 184 168 174 190 210 249 264 243 227 211 212 210 215 218 213 209 208 210 212 204 197 199 210 203 229 249 258 267
161 158 162 160 163 166 165 166 164 171 176 179 189 195 190 175 178 181 183 185 219 256 264 252 228 228 219 219 212 213 220 212 215 218 219 213 216 206 205 217 236 248 264
157 163 168 169 169 168 162 163 167 171 174 178 191 191 181 171 174 176 168 176 206 227 240 218 181 203 199 218 211 218 229 218 223 231 219 219 230 218 213 210 210 244 270
164 164 162 162 161 159 161 163 161 159 161 168 166 162 162 157 150 149 142 135 156 169 109 134 142 117 105 140 201 220 235 212 230 239 231 232 245 240 234 223 204 203 237
162 161 158 158 155 155 155 146 142 153 154 154 153 140 130 126 119 102 103 98 81 68 71 84 86 75 49 25 67 356 339 138 265 249 251 271 276 279 271 251 233 204 207
163 157 152 152 142 142 143 139 138 138 138 137 128 117 112 107 99 97 95 87 74 75 72 73 78 69 55 45 54 46 51 60 17 7 13 310 311 304 310 286 262 237 198
148 142 140 136 138 141 139 135 138 139 142 135 126 119 112 104 100 94 85 81 77 70 68 63 66 65 60 54 58 51 43 48 46 18 356 311 326 349 334 323 286 252 206
137 133 135 138 143 138 136 138 136 138 133 126 120 110 104 102 99 91 82 79 76 69 64 64 64 60 54 51 51 60 53 53 44 31 25 6 31 18 352 6 5 315 64
142 141 139 143 146 142 139 138 135 133 128 118 112 109 105 103 97 89 84 81 79 74 66 64 63 61 56 53 54 60 63 58 49 41 40 35 36 23 11 31 37 69 77
146 145 142 143 141 135 131 132 126 124 125 117 112 110 105 98 91 85 81 77 75 74 69 67 61 55 54 52 56 59 68 61 52 41 41 48 51 49 49 55 50 66 78
154 148 144 147 147 142 138 133 129 126 121 119 118 112 105 98 93 88 82 78 74 72 70 66 64 57 53 53 59 68 69 65 59 50 41 45 46 49 54 58 59 66 81
156 154 154 155 153 150 146 143 138 127 122 119 116 112 109 103 99 98 87 81 77 76 74 68 65 61 50 55 60 67 71 66 58 53 47 50 47 46 48 56 57 54 57
155 154 151 148 147 144 140 137 130 126 124 121 116 113 111 107 103 99 94 89 85 82 79 73 65 62 53 57 61 68 69 65 54 51 53 55 41 45 56 62 56 48 38
153 152 149 146 143 142 142 133 127 124 122 123 121 120 119 116 110 106 103 98 95 87 80 74 68 66 51 52 62 71 72 66 52 46 49 54 52 48 62 69 65 56 40
139 139 137 135 139 142 137 131 131 128 129 128 125 121 120 120 118 114 106 101 99 96 87 70 61 63 54 51 65 77 80 73 60 47 40 46 53 54 62 72 74 68 45
134 133 134 140 146 142 134 133 133 134 133 125 118 114 114 114 113 108 104 105 101 94 85 74 57 52 50 54 67 75 80 87 76 59 41 33 46 54 60 68 71 75 74
129 131 132 132 134 136 134 134 136 135 126 120 115 112 111 115 114 107 105 105 107 100 90 79 61 42 38 51 66 74 77 82 82 68 45 41 51 57 60 63 64 68 68
133 131 131 127 125 130 136 137 139 133 125 119 117 113 103 97 101 106 111 108 108 108 104 95 84 53 32 36 54 68 72 72 73 63 57 58 59 57 55 56 61 63 65
134 133 131 131 132 130 130 135 136 132 127 124 121 116 110 100 88 87 95 108 115 120 121 118 112 89 54 36 34 43 57 58 58 49 45 51 53 55 49 47 50 53 64
132 134 137 139 140 135 132 135 136 133 129 128 126 120 115 112 100 87 77 102 108 148 147 149 144 131 110 350 56 93 71 72 79 74 55 51 51 51 45 43 43 43 49
137 136 136 138 139 137 137 140 141 140 138 137 136 134 130 125 122 116 90 56 69 85 110 127 133 117 121 110 84 78 82 84 90 83 71 64 65 68 63 60 46 39 42
Height
1538 1541 1543 1545 1547 1549 1551 1552 1553 1554 1555 1556 1557 1558 1558 1559 1560 1561 1562 1562 1563 1563 1565 1565 1566 1567 1568 1569 1570 1571 1571 1572 1573 1573 1573 1573 1573 1573 1573 1573 1573 1573 1574
1537 1539 1542 1544 1545 1547 1549 1550 1552 1553 1554 1555 1556 1557 1558 1558 1558 1559 1560 1561 1561 1561 1562 1564 1564 1565 1566 1567 1568 1569 1569 1570 1571 1571 1571 1571 1571 1570 1570 1571 1571 1571 1571
1533 1536 1539 1541 1543 1545 1547 1549 1550 1551 1553 1554 1555 1556 1556 1556 1556 1557 1558 1558 1559 1559 1560 1561 1563 1564 1564 1565 1566 1566 1567 1567 1568 1568 1569 1568 1567 1567 1568 1567 1568 1568 1568
1532 1534 1537 1540 1542 1544 1546 1547 1549 1550 1550 1552 1553 1553 1553 1554 1554 1555 1556 1556 1557 1557 1558 1559 1560 1561 1561 1562 1563 1564 1564 1564 1565 1566 1566 1566 1566 1566 1564 1565 1565 1565 1564
1530 1532 1535 1538 1540 1543 1544 1546 1547 1548 1549 1550 1551 1551 1552 1552 1553 1553 1554 1554 1555 1555 1556 1557 1557 1558 1558 1559 1560 1560 1561 1561 1562 1562 1562 1563 1563 1563 1563 1561 1561 1561 1561
1529 1532 1535 1537 1540 1542 1543 1545 1545 1546 1547 1548 1549 1550 1550 1551 1551 1551 1552 1552 1553 1553 1554 1554 1555 1555 1555 1556 1556 1557 1557 1558 1558 1559 1559 1559 1559 1559 1559 1559 1558 1558 1558
1527 1530 1533 1536 1538 1540 1542 1543 1544 1545 1546 1547 1547 1548 1549 1549 1549 1550 1550 1550 1550 1551 1552 1552 1552 1552 1552 1553 1553 1553 1553 1554 1554 1554 1555 1555 1555 1556 1556 1556 1555 1554 1554
1525 1529 1531 1533 1536 1537 1540 1541 1543 1544 1545 1546 1546 1546 1547 1548 1548 1549 1549 1549 1549 1549 1549 1550 1549 1549 1549 1549 1550 1550 1550 1550 1550 1550 1551 1551 1551 1551 1551 1551 1552 1551 1550
1524 1527 1530 1532 1534 1536 1538 1540 1541 1543 1544 1544 1545 1545 1545 1546 1547 1547 1547 1547 1547 1547 1547 1547 1547 1547 1547 1547 1546 1546 1546 1546 1546 1546 1546 1546 1547 1547 1547 1547 1547 1548 1546
1523 1525 1528 1531 1533 1535 1537 1539 1540 1542 1543 1543 1544 1544 1545 1545 1546 1546 1546 1546 1546 1546 1545 1545 1545 1545 1545 1544 1544 1544 1543 1543 1543 1543 1543 1542 1543 1543 1543 1543 1543 1543 1543
1522 1524 1527 1530 1532 1534 1536 1538 1540 1541 1542 1543 1543 1544 1544 1545 1545 1545 1545 1545 1544 1544 1543 1543 1543 1543 1543 1542 1542 1541 1541 1541 1541 1540 1540 1539 1539 1539 1539 1539 1539 1539 1539
1521 1524 1527 1530 1532 1534 1536 1537 1539 1541 1541 1542 1543 1543 1544 1544 1544 1544 1544 1544 1543 1543 1543 1542 1542 1542 1541 1541 1540 1540 1539 1539 1538 1537 1537 1536 1536 1535 1535 1535 1535 1535 1534
1521 1524 1527 1530 1532 1534 1536 1537 1538 1540 1541 1542 1543 1543 1544 1544 1544 1544 1544 1543 1543 1543 1542 1542 1541 1541 1540 1539 1539 1538 1538 1537 1536 1536 1535 1534 1533 1532 1532 1532 1531 1531 1531
1521 1524 1527 1530 1532 1534 1536 1537 1538 1539 1541 1542 1542 1543 1543 1544 1544 1544 1544 1543 1543 1543 1542 1541 1541 1540 1539 1539 1538 1537 1537 1536 1535 1534 1533 1532 1531 1531 1530 1529 1529 1529 1529
1521 1523 1526 1530 1532 1534 1536 1537 1538 1539 1540 1541 1542 1542 1543 1544 1544 1544 1544 1543 1543 1543 1542 1542 1541 1540 1539 1538 1538 1537 1536 1535 1534 1533 1532 1531 1531 1530 1530 1529 1528 1528 1528
1519 1522 1525 1528 1530 1533 1535 1537 1538 1539 1540 1541 1543 1543 1544 1544 1544 1544 1544 1544 1543 1543 1543 1542 1541 1540 1539 1539 1538 1537 1536 1535 1534 1533 1532 1531 1531 1530 1530 1529 1529 1529 1528
1517 1520 1523 1526 1529 1532 1535 1537 1538 1539 1541 1542 1543 1544 1544 1545 1545 1545 1545 1544 1544 1544 1543 1543 1542 1541 1540 1539 1538 1537 1536 1535 1534 1534 1533 1532 1531 1531 1530 1530 1529 1529 1529
1516 1519 1522 1525 1528 1531 1534 1537 1538 1539 1541 1542 1543 1544 1544 1545 1545 1545 1545 1545 1544 1544 1544 1543 1543 1542 1541 1540 1539 1538 1537 1536 1536 1535 1534 1534 1533 1533 1532 1531 1531 1530 1529
1515 1519 1522 1525 1528 1531 1534 1536 1538 1539 1541 1542 1543 1544 1545 1545 1545 1545 1545 1545 1545 1545 1544 1544 1544 1543 1542 1542 1541 1540 1539 1538 1537 1537 1536 1536 1535 1535 1534 1533 1532 1532 1531
1515 1519 1522 1525 1528 1531 1533 1535 1537 1538 1540 1542 1543 1544 1545 1545 1545 1545 1545 1546 1546 1546 1545 1545 1545 1545 1544 1544 1543 1542 1541 1540 1539 1539 1538 1538 1538 1537 1536 1536 1535 1534 1534
1515 1518 1522 1524 1527 1530 1532 1534 1536 1538 1540 1541 1542 1544 1545 1545 1545 1546 1546 1546 1546 1547 1547 1546 1546 1546 1546 1546 1545 1545 1544 1543 1542 1541 1541 1540 1540 1540 1539 1538 1537 1537 1536
1515 1518 1521 1524 1527 1529 1531 1534 1536 1538 1539 1541 1542 1543 1544 1545 1545 1546 1546 1547 1547 1548 1548 1548 1548 1548 1548 1548 1548 1547 1546 1546 1545 1544 1544 1544 1543 1543 1542 1541 1540 1540 1539
1515 1518 1520 1522 1526 1528 1531 1533 1535 1537 1539 1540 1542 1543 1544 1545 1546 1546 1547 1548 1548 1549 1549 1549 1549 1549 1550 1550 1550 1549 1549 1548 1548 1547 1547 1547 1546 1545 1544 1544 1543 1542 1541
1514 1517 1519 1521 1524 1527 1530 1532 1534 1536 1538 1539 1541 1542 1544 1545 1546 1547 1548 1548 1549 1549 1550 1550 1550 1551 1551 1551 1551 1551 1551 1550 1550 1550 1549 1549 1549 1548 1547 1546 1546 1545 1544
1514 1516 1518 1520 1523 1526 1529 1531 1533 1535 1537 1538 1540 1542 1543 1544 1546 1547 1548 1549 1549 1550 1551 1551 1552 1552 1552 1552 1553 1552 1552 1552 1552 1552 1551 1551 1550 1550 1549 1549 1548 1548 1547
1513 1516 1518 1520 1522 1524 1527 1529 1532 1534 1536 1537 1539 1541 1542 1544 1545 1546 1548 1549 1550 1551 1552 1552 1553 1553 1553 1553 1554 1554 1554 1554 1554 1554 1553 1553 1552 1552 1551 1551 1550 1550 1549